DW8209 Gubbio IT current weather conditions

sailwx.info

Wind from 316

Air temperature 15.6° C
Dewpoint 15.1° C

Last reported at 2014-Sep-19 00:43 UTC.
Time now 2014-Sep-19 01:53 UTC

Location: N 43°19' E 012°34'.
View on Google Maps.

See reports from other nearby stations

  
Tides and Currents Weather Stations Pressure Air Temp Water Temp Dewpoint Dewpoint Depression Visibility Wind Speed Wind Dir Waves Ship Positions
date/time (UTC)wind fromknots sea level pressurealtimeterstation pressurevisibilityair tempwater tempwave heightnotes
2014-Sep-19 00:43 316 15.6
2014-Sep-19 00:28 315 15.6
2014-Sep-19 00:13 314 15.6
2014-Sep-18 23:58 315 15.6
2014-Sep-18 23:43 316 15.0
2014-Sep-18 23:28 234 15.0
2014-Sep-18 23:13 235 15.0
2014-Sep-18 22:58 239 15.0
2014-Sep-18 22:43 239 15.0
2014-Sep-18 22:28 239 15.0
2014-Sep-18 22:13 239 14.4
2014-Sep-18 21:58 239 0 gusting 0 15.0
2014-Sep-18 21:43 239 15.0
2014-Sep-18 21:28 239 15.0
2014-Sep-18 21:13 239 15.6
2014-Sep-18 20:58 239 15.6
2014-Sep-18 20:43 239 15.6
2014-Sep-18 20:28 239 15.6
2014-Sep-18 20:13 239 16.1
2014-Sep-18 19:58 239 16.1
2014-Sep-18 19:43 239 16.7
2014-Sep-18 19:28 239 16.7
2014-Sep-18 19:13 239 0 gusting 0 17.2
2014-Sep-18 18:42 222 17.8
2014-Sep-18 18:27 222 17.8
2014-Sep-18 18:12 222 18.3
2014-Sep-18 17:57 165 19.4
2014-Sep-18 17:42 165 20.0
2014-Sep-18 17:27 103 0 gusting 1 20.6
2014-Sep-18 17:12 113 0 gusting 1 21.1
2014-Sep-18 16:42 125 0 gusting 3 22.2
2014-Sep-18 16:27 115 1 gusting 3 22.8
2014-Sep-18 16:12 085 23.3
2014-Sep-18 15:57 021 23.3
2014-Sep-18 15:42 356 0 gusting 0 23.3
2014-Sep-18 15:27 019 23.3
2014-Sep-18 15:12 349 23.3
2014-Sep-18 14:57 281 0 gusting 1 23.3
2014-Sep-18 14:42 262 23.9
2014-Sep-18 14:27 214 24.4
2014-Sep-18 14:12 194 24.4
2014-Sep-18 13:57 215 24.4
2014-Sep-18 13:42 194 0 gusting 2 24.4
2014-Sep-18 13:27 173 2 gusting 5 23.9
2014-Sep-18 13:11 103 1 gusting 3 23.9
2014-Sep-18 12:56 109 1 gusting 4 24.4
2014-Sep-18 12:41 123 0 gusting 2 23.9
2014-Sep-18 12:26 110 1 gusting 5 23.9
2014-Sep-18 12:11 141 0 gusting 5 24.4
2014-Sep-18 11:56 134 1 gusting 5 24.4
2014-Sep-18 11:41 201 1 gusting 4 23.9
2014-Sep-18 11:26 146 5 gusting 7 23.3
2014-Sep-18 11:11 137 0 gusting 3 22.8
2014-Sep-18 10:56 078 2 gusting 4 22.2
2014-Sep-18 10:41 042 0 gusting 3 22.2
2014-Sep-18 10:26 129 1 gusting 3 23.3
2014-Sep-18 10:11 188 22.8
2014-Sep-18 09:56 115 1 gusting 2 22.2
2014-Sep-18 09:41 281 22.2
2014-Sep-18 09:26 179 0 gusting 2 21.1
2014-Sep-18 09:11 094 21.1
2014-Sep-18 08:56 141 21.7
2014-Sep-18 08:41 162 21.1
2014-Sep-18 08:26 091 19.4
2014-Sep-18 08:11 073 0 gusting 1 19.4
2014-Sep-18 07:56 191 18.9
2014-Sep-18 07:41 120 0 gusting 2 18.3
2014-Sep-18 07:26 122 0 gusting 2 18.3
2014-Sep-18 07:11 115 16.7
2014-Sep-18 06:56 049 15.6
2014-Sep-18 06:41 117 15.0
2014-Sep-18 06:26 109 13.3
2014-Sep-18 06:11 221 12.2
2014-Sep-18 05:56 221 11.7
2014-Sep-18 05:41 074 11.7
2014-Sep-18 05:26 061 1 gusting 2 11.1
2014-Sep-18 05:11 212 11.1
2014-Sep-18 04:56 228 0 gusting 1 11.1
2014-Sep-18 04:41 214 11.1
2014-Sep-18 04:26 020 0 gusting 1 11.1
2014-Sep-18 04:11 082 10.6
2014-Sep-18 03:56 082 11.1
2014-Sep-18 03:41 246 10.6
2014-Sep-18 03:25 246 10.6
2014-Sep-18 03:10 246 10.6
2014-Sep-18 02:55 257 11.1
2014-Sep-18 02:40 226 11.1
2014-Sep-18 02:25 226 11.1
2014-Sep-18 02:10 225 11.1
2014-Sep-18 01:55 225 11.7
2014-Sep-18 01:40 224 11.7
2014-Sep-18 01:25 225 0 gusting 1 11.7
2014-Sep-18 01:10 028 11.7
2014-Sep-18 00:55 020 11.7
2014-Sep-18 00:40 218 11.7
2014-Sep-18 00:25 210 12.2
2014-Sep-18 00:10 211 0 gusting 2 12.2
2014-Sep-17 23:55 001 0 gusting 1 12.8
2014-Sep-17 23:40 349 0 gusting 0 12.2
2014-Sep-17 23:25 277 12.2
2014-Sep-17 23:10 276 0 gusting 0 12.8
2014-Sep-17 22:55 277 12.8
2014-Sep-17 22:40 277 12.8
2014-Sep-17 22:25 277 0 gusting 0 13.3
2014-Sep-17 22:10 277 13.3
2014-Sep-17 21:55 008 1 gusting 1 13.3
2014-Sep-17 21:40 124 13.3
2014-Sep-17 21:25 224 0 gusting 1 13.9
2014-Sep-17 21:10 229 13.9
2014-Sep-17 20:55 243 14.4
2014-Sep-17 20:40 063 1 gusting 2 14.4
2014-Sep-17 20:25 300 0 gusting 1 14.4
2014-Sep-17 20:10 212 14.4
2014-Sep-17 19:55 224 15.0
2014-Sep-17 19:39 300 0 gusting 0 15.0
2014-Sep-17 19:24 269 0 gusting 1 15.0
2014-Sep-17 19:09 276 15.6
2014-Sep-17 18:54 278 16.1
2014-Sep-17 18:39 238 17.2
2014-Sep-17 18:25 043 18.3
2014-Sep-17 18:10 037 3 gusting 5 17.8
2014-Sep-17 17:55 183 18.3
2014-Sep-17 17:40 120 1 gusting 3 18.9
2014-Sep-17 17:25 093 19.4
2014-Sep-17 17:10 039 1 gusting 6 19.4
2014-Sep-17 16:55 040 4 gusting 6 20.0
2014-Sep-17 16:40 033 3 gusting 6 20.6
2014-Sep-17 16:24 041 3 gusting 6 21.1
2014-Sep-17 16:09 007 3 gusting 6 21.1
2014-Sep-17 15:54 043 5 gusting 6 21.1
2014-Sep-17 15:39 026 3 gusting 5 21.7
2014-Sep-17 15:24 069 1 gusting 5 21.1
2014-Sep-17 15:09 057 4 gusting 6 21.7
2014-Sep-17 14:54 041 4 gusting 6 22.2
2014-Sep-17 14:39 103 5 gusting 6 22.2
2014-Sep-17 14:24 084 4 gusting 6 22.2
2014-Sep-17 14:09 143 1 gusting 5 23.3
2014-Sep-17 13:54 101 2 gusting 4 23.3
2014-Sep-17 13:39 134 2 gusting 4 23.3
2014-Sep-17 13:24 143 2 gusting 5 22.8
2014-Sep-17 13:09 146 0 gusting 4 22.8
2014-Sep-17 12:54 070 22.2
2014-Sep-17 12:39 096 2 gusting 5 23.3
2014-Sep-17 12:24 142 1 gusting 4 23.3
2014-Sep-17 12:09 278 22.8
2014-Sep-17 11:54 169 0 gusting 2 21.1
2014-Sep-17 11:39 086 4 gusting 6 18.9
2014-Sep-17 11:24 127 2 gusting 6 18.9
2014-Sep-17 11:09 108 1 gusting 4 18.9
2014-Sep-17 10:54 084 2 gusting 4 18.9
2014-Sep-17 10:39 128 1 gusting 5 18.9
2014-Sep-17 10:24 120 2 gusting 6 18.9
2014-Sep-17 10:09 219 18.9
2014-Sep-17 09:54 195 18.3
2014-Sep-17 09:39 110 17.8
2014-Sep-17 09:24 037 0 gusting 1 17.8
2014-Sep-17 09:09 252 17.8
2014-Sep-17 08:53 131 17.8
2014-Sep-17 08:38 150 18.3
2014-Sep-17 08:23 161 17.8
2014-Sep-17 08:08 193 17.8
2014-Sep-17 07:53 245 16.7
2014-Sep-17 07:38 149 16.7
2014-Sep-17 07:23 165 16.1
2014-Sep-17 07:08 220 15.0
2014-Sep-17 06:53 349 13.3
2014-Sep-17 06:38 322 0 gusting 2 12.8
2014-Sep-17 06:23 329 0 gusting 1 12.2
2014-Sep-17 06:08 300 11.1
2014-Sep-17 05:53 255 0 gusting 1 10.0
2014-Sep-17 05:38 248 10.0
2014-Sep-17 05:23 246 10.0
2014-Sep-17 05:08 246 9.4
2014-Sep-17 04:53 246 0 gusting 0 9.4
2014-Sep-17 04:38 259 9.4
2014-Sep-17 04:23 221 10.0
2014-Sep-17 04:08 221 9.4
2014-Sep-17 03:53 221 9.4
2014-Sep-17 03:38 221 9.4
2014-Sep-17 03:23 218 0 gusting 1 10.0
2014-Sep-17 03:08 216 10.0
2014-Sep-17 02:53 216 10.6
2014-Sep-17 02:38 217 10.0
2014-Sep-17 02:23 217 10.6
2014-Sep-17 02:08 216 10.6
2014-Sep-17 01:53 218 10.6
2014-Sep-17 01:38 218 10.6
2014-Sep-17 01:23 218 10.6
2014-Sep-17 01:08 218 11.1